Location: Melbourne
(37.8666°S, 145.1333°E)
Time: 23:52:47
(UTC+10:00)

Amateur Radio Satellites - All Passes

Search period start: 01 August 2014 23:22
Search period end: 02 August 2014 23:22
Location: Melbourne, 37.8666°S, 145.1333°E

Satellite Date Start Highest point End Downlink Frequencies (MHz)
Time Altitude Azimuth
FUNcube-1 01 Aug 23:27:59 23:32:12 35° 251° (WSW) 23:36:19 145.950 - 145.970 MHz USB
KITSAT 1 01 Aug 23:29:05 23:29:31 10° 158° (SSE) 23:29:56 435.175 FM
Oscar 19 02 Aug 00:02:05 00:05:53 21° 115° (ESE) 00:09:43 437.125 CW, 437.150 USB
SO-50 02 Aug 00:06:09 00:10:31 33° 232° (SW) 00:14:52 436.795 FM
UOSAT-12 02 Aug 00:08:01 00:11:18 20° 69° (ENE) 00:14:34 437.025 FM, 437.400 FM
RS-15 02 Aug 00:08:13 00:19:55 65° 67° (ENE) 00:32:00 29.354 - 29.394 USB, Beacon 29.352 USB
Oscar 16 02 Aug 00:29:51 00:34:41 39° 110° (ESE) 00:39:33 437.025 USB, Beacon 2401.1428
JAS-1B 02 Aug 00:34:09 00:36:17 12° 120° (ESE) 00:38:22 435.800 - 435.900 CW/SSB
ITAMSAT 1 02 Aug 00:58:30 01:03:04 32° 112° (ESE) 01:07:42 435.822 SSB
Uribyol 2 02 Aug 01:16:27 01:21:28 51° 108° (ESE) 01:26:35 436.500 FM
AO-27 02 Aug 01:18:10 01:23:10 50° 108° (ESE) 01:28:15 436.795 MHz FM
KITSAT 1 02 Aug 01:20:35 01:27:54 35° 131° (SE) 01:35:09 435.175 FM
AO-40 02 Aug 01:24:28 03:03:41 40° 306° (NW) 07:44:45 Beacon 2401.320
AO-Echo 02 Aug 01:27:42 01:32:20 60° 106° (ESE) 01:37:03 ?
TMSAT-1 02 Aug 01:35:38 01:39:38 22° 115° (ESE) 01:43:39 436.925 FM
Oscar 19 02 Aug 01:39:51 01:44:51 46° 279° (W) 01:49:55 437.125 CW, 437.150 USB
UOSAT-12 02 Aug 01:46:56 01:51:09 39° 234° (SW) 01:55:21 437.025 FM, 437.400 FM
AO-7 02 Aug 01:47:58 01:52:30 16° 130° (SE) 01:57:03 29.400 - 29.500 MHz
Gurwin Techsat 1B 02 Aug 02:01:00 02:06:09 52° 108° (ESE) 02:11:22 435.225 FM
Oscar 16 02 Aug 02:10:00 02:14:07 23° 274° (W) 02:18:16 437.025 USB, Beacon 2401.1428
JAS-1B 02 Aug 02:19:52 02:26:17 86° 284° (WNW) 02:32:07 435.800 - 435.900 CW/SSB
RS-15 02 Aug 02:21:56 02:33:07 41° 224° (SW) 02:44:36 29.354 - 29.394 USB, Beacon 29.352 USB
ITAMSAT 1 02 Aug 02:38:04 02:42:31 28° 276° (W) 02:47:02 435.822 SSB
Uribyol 2 02 Aug 02:57:45 03:01:13 18° 273° (W) 03:04:43 436.500 FM
AO-27 02 Aug 02:59:29 03:02:57 18° 273° (W) 03:06:27 436.795 MHz FM
Saudisat 1A 02 Aug 03:06:59 03:11:24 60° 123° (ESE) 03:15:46 436.775 MHz
AO-Echo 02 Aug 03:09:40 03:11:31 12° 271° (W) 03:13:23 ?
TMSAT-1 02 Aug 03:14:08 03:19:12 45° 279° (W) 03:24:20 436.925 FM
KITSAT 1 02 Aug 03:15:43 03:23:36 55° 292° (WNW) 03:31:25 435.175 FM
Uosat F 02 Aug 03:27:46 03:32:39 55° 107° (ESE) 03:37:37 435.120 FM
AO-7 02 Aug 03:35:38 03:43:53 75° 110° (ESE) 03:52:14 29.400 - 29.500 MHz
Gurwin Techsat 1B 02 Aug 03:42:50 03:46:24 18° 272° (W) 03:50:00 435.225 FM
Oscar 10/S400 02 Aug 04:14:59 13:53:28 63° 334° (NNW) 14:23:06 145.825 - 145.975 CW/USB, Beacon 145.810 USB
OPAL 02 Aug 04:34:31 04:39:41 84° 75° (ENE) 04:44:43 ?
RS-15 02 Aug 04:42:35 04:50:30 19° 191° (S) 04:58:25 29.354 - 29.394 USB, Beacon 29.352 USB
Saudisat 1A 02 Aug 04:48:34 04:50:27 13° 288° (WNW) 04:52:19 436.775 MHz
Hamsat 02 Aug 05:00:52 05:04:52 35° 108° (ESE) 05:08:53 145.90 MHz
Uosat F 02 Aug 05:08:53 05:11:46 15° 272° (W) 05:14:41 435.120 FM
JAS-2 02 Aug 05:16:26 05:21:26 44° 111° (ESE) 05:26:56 435.800 - 435.900 CW/SSB, 435.910 FM
AO-7 02 Aug 05:31:26 05:37:20 21° 273° (W) 05:43:19 29.400 - 29.500 MHz
SO-67 02 Aug 06:02:02 06:04:43 21° 109° (ESE) 06:07:26 435.3500 MHz FM
OPAL 02 Aug 06:15:59 06:17:48 12° 238° (WSW) 06:19:36 ?
Hamsat 02 Aug 06:37:48 06:40:54 19° 273° (W) 06:44:01 145.90 MHz
SO-50 02 Aug 06:59:47 07:02:56 18° 135° (SE) 07:06:01 436.795 FM
RS-15 02 Aug 07:00:10 07:09:32 24° 154° (SSE) 07:18:40 29.354 - 29.394 USB, Beacon 29.352 USB
JAS-2 02 Aug 07:02:55 07:06:52 21° 271° (W) 07:11:04 435.800 - 435.900 CW/SSB, 435.910 FM
STRAND 1 02 Aug 07:03:44 07:08:58 73° 78° (ENE) 07:14:07 ?
SO-67 02 Aug 07:35:06 07:37:42 19° 274° (W) 07:40:19 435.3500 MHz FM
UKube-1 02 Aug 07:35:41 07:37:23 12° 117° (ESE) 07:39:04 145.840 MHz, 145.915 MHz
HO-68 02 Aug 07:47:37 07:54:15 42° 114° (ESE) 08:00:57 435.675 MHz FM
MaSat-1 02 Aug 07:48:14 07:51:51 59° 67° (ENE) 07:54:58 437.345 MHz
Oscar 11 02 Aug 08:15:20 08:18:07 17° 114° (ESE) 08:20:54 145.825 FM, Beacon 2401.500 USB
SO-50 02 Aug 08:39:22 08:43:50 55° 297° (WNW) 08:48:12 436.795 FM
UOSAT-12 02 Aug 08:39:25 08:41:32 13° 137° (SE) 08:43:38 437.025 FM, 437.400 FM
STRAND 1 02 Aug 08:44:58 08:47:29 14° 241° (WSW) 08:50:00 ?
FUNcube-1 02 Aug 08:47:56 08:50:27 15° 116° (ESE) 08:53:00 145.950 - 145.970 MHz USB
ISS 02 Aug 08:56:39 08:59:43 33° 46° (NE) 09:02:49 145.800 FM
UKube-1 02 Aug 09:08:43 09:13:01 61° 281° (W) 09:17:24 145.840 MHz, 145.915 MHz
RS-15 02 Aug 09:12:52 09:25:04 66° 126° (SE) 09:36:38 29.354 - 29.394 USB, Beacon 29.352 USB
HO-68 02 Aug 09:35:32 09:41:57 35° 277° (W) 09:48:27 435.675 MHz FM
Oscar 11 02 Aug 09:49:45 09:53:55 42° 279° (W) 09:58:09 145.825 FM, Beacon 2401.500 USB
Sapphire 02 Aug 10:13:33 10:16:56 17° 76° (ENE) 10:20:19 437.095 MHz 1200 baud AX-25 AFSK
UOSAT-12 02 Aug 10:17:46 10:22:11 78° 299° (WNW) 10:26:37 437.025 FM, 437.400 FM
FUNcube-1 02 Aug 10:21:57 10:26:20 53° 279° (W) 10:30:53 145.950 - 145.970 MHz USB
ISS 02 Aug 10:33:31 10:36:27 27° 210° (SSW) 10:39:25 145.800 FM
PCSat 02 Aug 10:44:42 10:49:36 36° 70° (ENE) 10:54:33 145.825 MHz
RS-15 02 Aug 11:26:24 11:36:40 35° 284° (WNW) 11:46:33 29.354 - 29.394 USB, Beacon 29.352 USB
Sapphire 02 Aug 11:54:27 11:59:48 60° 240° (WSW) 12:05:12 437.095 MHz 1200 baud AX-25 AFSK
PCSat 02 Aug 12:28:18 12:33:02 30° 233° (SW) 12:37:48 145.825 MHz
Oscar 16 02 Aug 12:44:42 12:47:48 16° 88° (E) 12:50:52 437.025 USB, Beacon 2401.1428
ITAMSAT 1 02 Aug 13:14:51 13:17:13 13° 89° (E) 13:19:34 435.822 SSB
Uribyol 2 02 Aug 13:31:52 13:35:51 21° 86° (E) 13:39:47 436.500 FM
AO-27 02 Aug 13:33:51 13:37:50 21° 86° (E) 13:41:46 436.795 MHz FM
AO-Echo 02 Aug 13:36:54 13:40:59 24° 85° (E) 13:45:07 ?
Oscar 19 02 Aug 13:53:08 13:58:22 74° 78° (ENE) 14:03:29 437.125 CW, 437.150 USB
JAS-1B 02 Aug 14:04:35 14:10:18 29° 82° (E) 14:16:48 435.800 - 435.900 CW/SSB
OPAL 02 Aug 14:11:28 14:14:26 15° 120° (ESE) 14:17:25 ?
PANSAT 02 Aug 14:12:02 14:14:00 14° 15° (NNE) 14:15:58 not established
Gurwin Techsat 1B 02 Aug 14:19:43 14:24:02 24° 86° (E) 14:28:18 435.225 FM
Oscar 16 02 Aug 14:22:23 14:27:30 56° 253° (WSW) 14:32:31 437.025 USB, Beacon 2401.1428
ITAMSAT 1 02 Aug 14:51:54 14:57:11 69° 254° (WSW) 15:02:24 435.822 SSB
Uribyol 2 02 Aug 15:10:28 15:15:29 43° 251° (WSW) 15:20:26 436.500 FM
AO-27 02 Aug 15:12:29 15:17:29 43° 251° (WSW) 15:22:27 436.795 MHz FM
AO-Echo 02 Aug 15:15:07 15:19:48 38° 251° (WSW) 15:24:33 ?
ISS 02 Aug 15:26:57 15:29:52 26° 150° (SSE) 15:32:44 145.800 FM
TMSAT-1 02 Aug 15:31:32 15:36:57 85° 77° (ENE) 15:42:17 436.925 FM
Oscar 19 02 Aug 15:34:37 15:37:01 13° 241° (WSW) 15:39:25 437.125 CW, 437.150 USB
Uosat F 02 Aug 15:38:14 15:41:57 20° 86° (E) 15:45:37 435.120 FM
AO-7 02 Aug 15:40:08 15:47:01 27° 84° (E) 15:53:49 29.400 - 29.500 MHz
OPAL 02 Aug 15:47:29 15:52:42 68° 284° (WNW) 15:57:59 ?
KITSAT 1 02 Aug 15:48:01 15:54:27 27° 75° (ENE) 16:00:55 435.175 FM
PANSAT 02 Aug 15:50:41 15:53:35 20° 2° (N) 15:56:29 not established
JAS-1B 02 Aug 15:54:47 16:00:57 47° 251° (WSW) 16:08:10 435.800 - 435.900 CW/SSB
Gurwin Techsat 1B 02 Aug 15:59:06 16:04:05 39° 250° (WSW) 16:09:00 435.225 FM
STRAND 1 02 Aug 16:44:22 16:44:37 10° 121° (ESE) 16:44:52 ?
ISS 02 Aug 17:03:31 17:06:37 35° 314° (NW) 17:09:42 145.800 FM
Saudisat 1A 02 Aug 17:12:35 17:16:05 23° 68° (ENE) 17:19:36 436.775 MHz
TMSAT-1 02 Aug 17:14:06 17:16:05 12° 240° (WSW) 17:18:03 436.925 FM
Uosat F 02 Aug 17:16:04 17:20:53 43° 251° (WSW) 17:25:40 435.120 FM
PANSAT 02 Aug 17:30:43 17:33:11 16° 349° (N) 17:35:39 not established
AO-7 02 Aug 17:31:57 17:40:11 62° 247° (WSW) 17:48:23 29.400 - 29.500 MHz
KITSAT 1 02 Aug 17:41:16 17:49:14 62° 237° (WSW) 17:57:18 435.175 FM
MaSat-1 02 Aug 17:44:28 17:47:02 76° 295° (WNW) 17:49:49 437.345 MHz
JAS-2 02 Aug 18:10:09 18:17:23 55° 80° (E) 18:25:01 435.800 - 435.900 CW/SSB, 435.910 FM
STRAND 1 02 Aug 18:17:49 18:22:57 86° 104° (ESE) 18:28:09 ?
Hamsat 02 Aug 18:23:59 18:28:18 89° 256° (WSW) 18:32:32 145.90 MHz
Saudisat 1A 02 Aug 18:51:29 18:55:29 33° 232° (SW) 18:59:31 436.775 MHz
SO-67 02 Aug 19:00:01 19:03:12 30° 83° (E) 19:06:20 435.3500 MHz FM
Sapphire 02 Aug 19:03:07 19:05:15 12° 138° (SE) 19:07:21 437.095 MHz 1200 baud AX-25 AFSK
AO-7 02 Aug 19:28:00 19:31:17 13° 228° (SW) 19:34:34 29.400 - 29.500 MHz
PCSat 02 Aug 19:34:35 19:38:48 22° 130° (SE) 19:42:59 145.825 MHz
KITSAT 1 02 Aug 19:41:40 19:46:26 16° 214° (SW) 19:51:14 435.175 FM
JAS-2 02 Aug 19:55:53 20:02:00 30° 246° (WSW) 20:08:29 435.800 - 435.900 CW/SSB, 435.910 FM
SO-67 02 Aug 20:34:08 20:35:58 14° 248° (WSW) 20:37:47 435.3500 MHz FM
Sapphire 02 Aug 20:44:09 20:49:37 75° 118° (ESE) 20:55:01 437.095 MHz 1200 baud AX-25 AFSK
UKube-1 02 Aug 20:59:18 21:03:01 26° 84° (E) 21:06:42 145.840 MHz, 145.915 MHz
HO-68 02 Aug 21:04:16 21:11:19 51° 79° (E) 21:18:17 435.675 MHz FM
PCSat 02 Aug 21:17:14 21:22:31 53° 292° (WNW) 21:27:45 145.825 MHz
Oscar 11 02 Aug 21:39:13 21:43:21 38° 82° (E) 21:47:24 145.825 FM, Beacon 2401.500 USB
FUNcube-1 02 Aug 22:13:16 22:17:33 35° 83° (E) 22:21:42 145.950 - 145.970 MHz USB
Sapphire 02 Aug 22:29:57 22:32:19 13° 283° (WNW) 22:34:41 437.095 MHz 1200 baud AX-25 AFSK
UKube-1 02 Aug 22:35:26 22:39:08 26° 249° (WSW) 22:42:47 145.840 MHz, 145.915 MHz
SO-50 02 Aug 22:51:51 22:56:41 75° 61° (ENE) 23:01:31 436.795 FM
HO-68 02 Aug 22:52:34 22:58:39 30° 242° (WSW) 23:04:41 435.675 MHz FM
Oscar 11 02 Aug 23:16:16 23:19:12 18° 246° (WSW) 23:22:07 145.825 FM, Beacon 2401.500 USB
